Regional Weather Roundup
Issued by NWS

Home | Current Version | Previous Version | Graphics & Text | Print | Product List | Glossary On
Versions: 1 2 3 4 5 6 7 8 9 10 11 12 13 14 15 16 17 18 19 20 21 22 23 24 25 26 27 28 29 30 31 32 33 34 35 36 37 38 39 40 41 42 43 44 45 46 47 48 49 50
000
ASUS44 KMEG 230210
RWRTN
TENNESSEE HOURLY STATE WEATHER ROUNDUP
NATIONAL WEATHER SERVICE MEMPHIS TN
900 PM CDT MON SEP 22 2014

TNZ002-004-019-021-049-052-054-088>092-230300-
WEST TENNESSEE

CITY           SKY/WX    TMP DP  RH WIND       PRES   REMARKS
MEMPHIS INTL   CLEAR     68  50  52 N8        30.19R
NWS MEMPHIS      N/A     66 N/A N/A MISG        N/A
JACKSON        CLEAR     62  49  62 N3        30.20R
DYERSBURG      CLEAR     63  41  45 N7        30.22R
UNION CITY     CLEAR     57  46  67 NE5       30.21R
PARIS          CLEAR     52  45  76 N3        30.22S
HUNTINGDON     CLEAR     59  45  59 N3        30.22R
LEXINGTON      CLEAR     59  48  67 NE5       30.19R
SAVANNAH       CLEAR     55  54  94 CALM      30.19R
$$

TNZ008-025-027-028-033-062-065-066-230300-
NORTH MIDDLE TENNESSEE

CITY           SKY/WX    TMP DP  RH WIND       PRES   REMARKS
NASHVILLE      CLEAR     61  47  59 N6        30.21R
DICKSON        CLEAR     57  45  62 N5        30.21R
PORTLAND       CLEAR     55  46  71 CALM      30.22R
CLARKSVILLE    CLEAR     58  45  62 N5        30.21R
LEBANON        CLEAR     59  45  59 NE3       30.20R
SMYRNA         CLEAR     62  48  60 NE5       30.22R
MURFREESBORO   CLEAR     60  46  59 NE3       30.20R
COOKEVILLE     CLEAR     46  46 100 CALM      30.22R
GALLATIN       CLEAR     58  48  69 CALM      30.22R
CROSSVILLE     CLEAR     57  47  69 N6        30.23R
$$

TNZ061-075-076-078-094-096-097-230300-
SOUTH MIDDLE TENNESSEE

CITY           SKY/WX    TMP DP  RH WIND       PRES   REMARKS
LEWISBURG      CLEAR     57  46  66 N3        30.19R
FAYETTEVILLE   CLEAR     57  45  62 NE9       30.18R
TULLAHOMA      CLEAR     57  46  67 N5        30.20S
WINCHESTER     CLEAR     57  48  72 CALM      30.20R
MCMINNVILLE    CLEAR     55  48  76 N7        30.21R
COLUMBIA       CLEAR     57  50  77 CALM      30.19R
SHELBYVILLE    CLEAR     63  46  55 NE8       30.21R
$$

TNZ017-018-042-046-047-230300-
NORTHEAST TENNESSEE

CITY           SKY/WX    TMP DP  RH WIND       PRES   REMARKS
TRI CITIES     CLEAR     56  47  71 CALM      30.23R
ELIZABETHTON   CLEAR     50  48  93 CALM      30.23R
$$

TNZ012-013-036-069-073-074-230300-
CENTRAL EAST TENNESSEE

CITY           SKY/WX    TMP DP  RH WIND       PRES   REMARKS
KNOXVILLE      CLEAR     61  50  67 N7        30.18R
OAK RIDGE      CLEAR     59  48  67 CALM      30.22R
GATLINBURG     CLEAR     57  50  77 CALM      30.20R
MORRISTOWN     CLEAR     57  50  77 NE3       30.22R
$$

TNZ083-085-099-230300-
SOUTHEAST TENNESSEE

CITY           SKY/WX    TMP DP  RH WIND       PRES   REMARKS
CHATTANOOGA    CLEAR     65  49  56 N9        30.16R
$$

SKY/WX REPORTED AS FAIR MEANS FEW OR NO CLOUDS BELOW
12 THOUSAND FEET.



USA.gov is the U.S. government's official web portal to all federal, state and local government web resources and services.